This is the latest recevied weather packets stored in our database for station/object WI0K. If no packets are shown the sender has not sent any weather packets the latest 10 day(s).
| Time | Temp. | Humidity | Pressure | Rain* | Wind** | Luminosity | Snow |
|---|---|---|---|---|---|---|---|
| 1788221806 | 27.78° C | 30% | 1019.2 hPa | 0 mm | - | 65 W/m² | - |
| 1788221506 | 28.33° C | 29% | 1019.2 hPa | 0 mm | - | 78 W/m² | - |
| 1788221205 | 28.33° C | 29% | 1019.2 hPa | 0 mm | - | 118 W/m² | - |
| 1788220904 | 27.78° C | 29% | 1019.4 hPa | 0 mm | - | 139 W/m² | - |
| 1788220603 | 28.33° C | 29% | 1019.2 hPa | 0 mm | - | 117 W/m² | - |
| 1788220302 | 28.33° C | 29% | 1019.2 hPa | 0 mm | - | 105 W/m² | - |
| 1788220001 | 28.33° C | 29% | 1019.4 hPa | 0 mm | - | 92 W/m² | - |
| 1788219700 | 28.89° C | 29% | 1019.4 hPa | 0 mm | - | 98 W/m² | - |
| 1788219399 | 28.89° C | 29% | 1019.4 hPa | 0 mm | - | 131 W/m² | - |
| 1788219098 | 28.89° C | 29% | 832.2 hPa | 0 mm | - | 159 W/m² | - |
| 1788218798 | 28.89° C | 29% | 832.1 hPa | 0 mm | - | 169 W/m² | - |
| 1788218497 | 28.89° C | 29% | 1019.2 hPa | 0 mm | - | 196 W/m² | - |
| 1788218196 | 28.89° C | 29% | 1019.2 hPa | 0 mm | - | 196 W/m² | - |
| 1788217895 | 28.89° C | 28% | 1019.2 hPa | 0 mm | - | 159 W/m² | - |
| 1788217594 | 28.89° C | 29% | 1019.2 hPa | 0 mm | - | 144 W/m² | - |
| 1788217293 | 28.89° C | 28% | 1019.4 hPa | 0 mm | - | 152 W/m² | - |
| 1788216993 | 28.89° C | 29% | 1019.4 hPa | 0 mm | - | 231 W/m² | - |
| 1788216692 | 28.89° C | 28% | 1019.5 hPa | 0 mm | - | 384 W/m² | - |
| 1788216391 | 28.89° C | 29% | 1019.6 hPa | 0 mm | - | 523 W/m² | - |
| 1788216089 | 28.89° C | 29% | 1019.6 hPa | 0 mm | - | 504 W/m² | - |
| 1788215788 | 28.89° C | 30% | 1019.6 hPa | 0 mm | - | 536 W/m² | - |
| 1788215487 | 28.33° C | 30% | 1019.7 hPa | 0 mm | - | 550 W/m² | - |
| 1788215187 | 28.33° C | 30% | 1019.8 hPa | 0 mm | - | 425 W/m² | - |
| 1788214886 | 28.33° C | 31% | 1019.8 hPa | 0 mm | - | 586 W/m² | - |
| 1788214585 | 28.33° C | 30% | 1019.8 hPa | 0 mm | - | 153 W/m² | - |
* Rain latest hour (hover to see other rain measurements)
** Current wind speed in m/s (hover to see current wind gust speed)